When you browse on this site, cookies collect data to enhance your experience and personalize the content and advertising you see.
Visit our Privacy Policy to learn more. By continuing to use the site, you agree to this use of cookies and data.
  • In Österreich
  • Länderverzeichnis
  • Für 7 Tage
  • Wassertemperatur
  • Satellitenkarten
  • Wetterkarte
  • News
  • Widgets
  • user-avatar
    Anmelden

    Stündliche Wetter Stanton

    Heute, 20 Juli, Samstag

    Zeit Temperatur Niederschläge Wind Luftdruck Luftfeuchtigkeit
    00:00 +20°C° 0 mm 2 m/S 758 mmHg 77%
    01:00 +19°C° 0 mm 2 m/S 758 mmHg 79%
    02:00 +20°C° 0 mm 1 m/S 758 mmHg 79%
    03:00 +20°C° 0 mm 1 m/S 757 mmHg 78%
    04:00 +20°C° 0 mm 1 m/S 757 mmHg 78%
    05:00 +20°C° 0 mm 1 m/S 757 mmHg 76%
    06:00 +21°C° 0 mm 1 m/S 758 mmHg 74%
    07:00 +21°C° 0 mm 1 m/S 758 mmHg 72%
    08:00 +23°C° 0 mm 2 m/S 758 mmHg 66%
    09:00 +24°C° 0 mm 2 m/S 758 mmHg 61%
    10:00 +25°C° 0 mm 2 m/S 758 mmHg 55%
    11:00 +26°C° 0 mm 3 m/S 757 mmHg 53%
    12:00 +27°C° 0 mm 4 m/S 757 mmHg 51%
    13:00 +28°C° 0 mm 4 m/S 756 mmHg 48%
    14:00 +28°C° 0 mm 4 m/S 756 mmHg 49%
    15:00 +27°C° 0 mm 4 m/S 756 mmHg 50%
    16:00 +27°C° 0 mm 4 m/S 755 mmHg 51%
    17:00 +26°C° 0 mm 4 m/S 756 mmHg 54%
    18:00 +25°C° 0 mm 4 m/S 756 mmHg 58%
    19:00 +24°C° 0 mm 3 m/S 756 mmHg 61%
    20:00 +24°C° 0 mm 3 m/S 756 mmHg 62%
    21:00 +24°C° 0 mm 2 m/S 756 mmHg 63%
    22:00 +23°C° 0 mm 2 m/S 757 mmHg 64%
    23:00 +23°C° 0 mm 2 m/S 756 mmHg 65%

    Morgen, 21 Juli, Sonntag

    Zeit Temperatur Niederschläge Wind Luftdruck Luftfeuchtigkeit
    00:00 +23°C° 0 mm 1 m/S 756 mmHg 66%
    01:00 +23°C° 0 mm 1 m/S 756 mmHg 67%
    02:00 +22°C° 0 mm 1 m/S 756 mmHg 68%
    03:00 +21°C° 0 mm 2 m/S 756 mmHg 69%
    04:00 +21°C° 0 mm 2 m/S 756 mmHg 70%
    05:00 +23°C° 0 mm 1 m/S 756 mmHg 67%
    06:00 +23°C° 0 mm 1 m/S 756 mmHg 65%
    07:00 +24°C° 0 mm 1 m/S 757 mmHg 63%
    08:00 +25°C° 0 mm 1 m/S 757 mmHg 57%
    09:00 +27°C° 0 mm 2 m/S 757 mmHg 51%
    10:00 +28°C° 0 mm 3 m/S 757 mmHg 45%
    11:00 +30°C° 0 mm 3 m/S 756 mmHg 43%
    12:00 +32°C° 0 mm 4 m/S 756 mmHg 40%
    13:00 +33°C° 0 mm 4 m/S 756 mmHg 37%
    14:00 +33°C° 0 mm 4 m/S 756 mmHg 38%
    15:00 +32°C° 0 mm 4 m/S 755 mmHg 38%
    16:00 +32°C° 0 mm 4 m/S 755 mmHg 38%
    17:00 +30°C° 0 mm 4 m/S 755 mmHg 41%
    18:00 +29°C° 0 mm 3 m/S 755 mmHg 45%
    19:00 +27°C° 0 mm 3 m/S 755 mmHg 48%
    20:00 +26°C° 0 mm 3 m/S 756 mmHg 52%
    21:00 +26°C° 0 mm 2 m/S 757 mmHg 56%
    22:00 +25°C° 0 mm 2 m/S 757 mmHg 61%
    23:00 +25°C° 0 mm 2 m/S 757 mmHg 62%

    übermorgen, 22 Juli, Montag

    Zeit Temperatur Niederschläge Wind Luftdruck Luftfeuchtigkeit
    00:00 +24°C° 0 mm 1 m/S 757 mmHg 63%
    01:00 +24°C° 0 mm 1 m/S 757 mmHg 64%
    02:00 +24°C° 0 mm 1 m/S 757 mmHg 65%
    03:00 +24°C° 0 mm 1 m/S 757 mmHg 65%
    04:00 +24°C° 0 mm 1 m/S 757 mmHg 66%
    05:00 +24°C° 0 mm 1 m/S 758 mmHg 64%
    06:00 +25°C° 0 mm 1 m/S 758 mmHg 62%
    07:00 +23°C° 0 mm 0 m/S 758 mmHg 60%
    08:00 +26°C° 0 mm 1 m/S 758 mmHg 55%
    09:00 +28°C° 0 mm 1 m/S 758 mmHg 50%
    10:00 +29°C° 0 mm 2 m/S 758 mmHg 46%
    11:00 +30°C° 0 mm 2 m/S 758 mmHg 42%
    12:00 +33°C° 0 mm 3 m/S 758 mmHg 37%
    13:00 +34°C° 0 mm 3 m/S 758 mmHg 33%
    14:00 +34°C° 0 mm 4 m/S 757 mmHg 33%
    15:00 +34°C° 0 mm 4 m/S 757 mmHg 33%
    16:00 +33°C° 0 mm 4 m/S 757 mmHg 33%
    17:00 +32°C° 0 mm 4 m/S 757 mmHg 36%
    18:00 +30°C° 0 mm 3 m/S 757 mmHg 39%
    19:00 +29°C° 0 mm 3 m/S 757 mmHg 42%
    20:00 +28°C° 0 mm 3 m/S 758 mmHg 44%
    21:00 +28°C° 0 mm 2 m/S 758 mmHg 46%
    22:00 +27°C° 0 mm 1 m/S 759 mmHg 48%
    23:00 +27°C° 0 mm 1 m/S 758 mmHg 49%

    23 Juli, Dienstag

    Zeit Temperatur Niederschläge Wind Luftdruck Luftfeuchtigkeit
    00:00 +26°C° 0 mm 1 m/S 758 mmHg 50%
    01:00 +26°C° 0 mm 1 m/S 758 mmHg 51%
    02:00 +26°C° 0 mm 1 m/S 758 mmHg 52%
    03:00 +26°C° 0 mm 1 m/S 758 mmHg 53%
    04:00 +26°C° 0 mm 1 m/S 758 mmHg 53%
    05:00 +26°C° 0 mm 1 m/S 759 mmHg 51%
    06:00 +27°C° 0 mm 1 m/S 759 mmHg 49%
    07:00 +27°C° 0 mm 1 m/S 759 mmHg 48%
    08:00 +29°C° 0 mm 2 m/S 759 mmHg 43%
    09:00 +30°C° 0 mm 2 m/S 759 mmHg 39%
    10:00 +33°C° 0 mm 3 m/S 759 mmHg 35%
    11:00 +33°C° 0 mm 3 m/S 758 mmHg 34%
    12:00 +34°C° 0 mm 4 m/S 758 mmHg 33%
    13:00 +34°C° 0 mm 5 m/S 758 mmHg 32%
    14:00 +34°C° 0 mm 4 m/S 758 mmHg 33%
    15:00 +34°C° 0 mm 4 m/S 757 mmHg 33%
    16:00 +33°C° 0 mm 4 m/S 757 mmHg 34%
    17:00 +31°C° 0 mm 3 m/S 757 mmHg 36%
    18:00 +30°C° 0 mm 3 m/S 757 mmHg 39%
    19:00 +29°C° 0 mm 2 m/S 757 mmHg 41%
    20:00 +28°C° 0 mm 2 m/S 758 mmHg 42%
    21:00 +28°C° 0 mm 1 m/S 758 mmHg 43%
    22:00 +28°C° 0 mm 1 m/S 758 mmHg 43%
    23:00 +28°C° 0 mm 1 m/S 758 mmHg 44%

    24 Juli, Mittwoch

    Zeit Temperatur Niederschläge Wind Luftdruck Luftfeuchtigkeit
    00:00 +28°C° 0 mm 1 m/S 758 mmHg 44%
    01:00 +27°C° 0 mm 1 m/S 758 mmHg 44%
    02:00 +27°C° 0.1 mm 1 m/S 758 mmHg 45%
    03:00 +27°C° 0.1 mm 1 m/S 758 mmHg 47%
    04:00 +25°C° 0.1 mm 0 m/S 758 mmHg 48%
    05:00 +26°C° 0.2 mm 0 m/S 758 mmHg 47%
    06:00 +26°C° 0.2 mm 0 m/S 758 mmHg 46%
    07:00 +26°C° 0.2 mm 0 m/S 758 mmHg 45%
    08:00 +30°C° 0 mm 1 m/S 758 mmHg 41%
    09:00 +32°C° 0 mm 1 m/S 758 mmHg 38%
    10:00 +34°C° 0 mm 2 m/S 758 mmHg 34%
    11:00 +35°C° 0 mm 3 m/S 757 mmHg 32%
    12:00 +36°C° 0 mm 3 m/S 757 mmHg 31%
    13:00 +37°C° 0 mm 4 m/S 757 mmHg 29%
    14:00 +37°C° 0 mm 4 m/S 756 mmHg 29%
    15:00 +36°C° 0 mm 4 m/S 756 mmHg 30%
    16:00 +36°C° 0 mm 4 m/S 756 mmHg 30%
    17:00 +34°C° 0 mm 3 m/S 756 mmHg 33%
    18:00 +33°C° 0 mm 3 m/S 756 mmHg 37%
    19:00 +30°C° 0 mm 2 m/S 756 mmHg 40%
    20:00 +30°C° 0 mm 2 m/S 756 mmHg 41%
    21:00 +30°C° 0 mm 1 m/S 757 mmHg 42%
    22:00 +29°C° 0 mm 1 m/S 757 mmHg 43%
    23:00 +29°C° 0 mm 1 m/S 757 mmHg 45%

    25 Juli, Donnerstag

    Zeit Temperatur Niederschläge Wind Luftdruck Luftfeuchtigkeit
    00:00 +28°C° 0 mm 1 m/S 757 mmHg 46%
    01:00 +28°C° 0 mm 2 m/S 757 mmHg 48%
    02:00 +28°C° 0 mm 1 m/S 757 mmHg 49%
    03:00 +27°C° 0 mm 1 m/S 757 mmHg 50%
    04:00 +27°C° 0 mm 1 m/S 757 mmHg 51%
    05:00 +27°C° 0 mm 1 m/S 757 mmHg 50%
    06:00 +28°C° 0 mm 1 m/S 757 mmHg 49%
    07:00 +28°C° 0 mm 1 m/S 757 mmHg 48%
    08:00 +29°C° 0 mm 2 m/S 757 mmHg 44%
    09:00 +31°C° 0 mm 2 m/S 757 mmHg 41%
    10:00 +33°C° 0 mm 3 m/S 757 mmHg 38%
    11:00 +33°C° 0 mm 3 m/S 757 mmHg 37%
    12:00 +34°C° 0 mm 4 m/S 756 mmHg 37%
    13:00 +34°C° 0 mm 4 m/S 756 mmHg 36%
    14:00 +34°C° 0 mm 4 m/S 756 mmHg 36%
    15:00 +33°C° 0 mm 4 m/S 756 mmHg 36%
    16:00 +33°C° 0 mm 4 m/S 755 mmHg 37%
    17:00 +31°C° 0 mm 3 m/S 756 mmHg 39%
    18:00 +30°C° 0 mm 3 m/S 756 mmHg 41%
    19:00 +29°C° 0 mm 2 m/S 756 mmHg 43%
    20:00 +29°C° 0 mm 2 m/S 756 mmHg 45%
    21:00 +28°C° 0 mm 2 m/S 757 mmHg 46%
    22:00 +27°C° 0 mm 2 m/S 757 mmHg 48%
    23:00 +27°C° 0 mm 2 m/S 757 mmHg 49%
    Mehr zeigen